Theta_e
337 336 335 334 331 330 327 324 325 324 323 321 320 329 344 344 345 346 348 355 354 356 356 354 355 356 356 356 355 354 353 352 351 351 350 350 350 349 348 347 347 347 347
333 329 327 326 326 324 322 321 321 319 316 316 315 334 343 344 342 344 345 347 350 351 352 353 353 353 352 353 352 352 352 351 350 350 349 349 348 348 347 348 348 348 348
329 326 323 322 321 318 319 319 316 316 314 313 312 327 339 337 338 338 338 338 341 349 351 352 351 351 351 352 350 348 346 346 346 346 345 345 346 346 345 345 346 347 349
325 322 319 318 316 316 317 317 315 313 310 310 308 316 331 332 331 329 328 326 326 334 345 346 345 345 345 344 343 341 339 337 337 338 339 340 341 341 342 343 344 344 345
321 317 317 315 314 313 313 315 315 313 307 306 309 316 324 320 322 324 320 321 323 325 334 338 336 335 335 336 338 337 334 332 332 332 333 333 334 334 334 336 337 338 339
317 314 313 312 312 311 310 311 312 308 306 306 317 325 320 315 314 316 317 318 317 320 322 321 321 323 327 327 329 330 329 327 326 326 325 325 326 327 328 330 331 332 332
314 312 311 311 310 308 307 310 312 305 306 307 316 311 310 311 310 309 311 311 313 317 318 316 315 314 316 323 323 324 325 325 323 321 320 320 322 323 323 324 325 326 327
312 310 310 308 307 306 308 309 308 306 304 304 312 310 306 309 310 309 306 309 309 313 316 314 312 311 310 311 315 319 320 321 321 320 319 318 319 320 320 321 322 322 323
311 310 309 308 307 309 307 306 306 304 302 303 304 313 307 301 302 304 304 304 306 306 308 312 312 311 307 308 311 314 317 317 317 318 317 317 317 318 319 319 319 319 320
311 311 309 309 313 309 304 303 303 302 301 301 300 302 300 305 298 297 299 299 303 304 304 309 308 307 305 305 313 316 314 315 315 315 315 315 316 316 317 317 317 317 318
313 312 312 310 306 304 301 301 300 299 299 298 298 297 296 297 298 297 292 293 298 301 303 301 301 301 301 301 303 309 315 313 312 312 313 314 315 315 315 316 315 316 316
313 310 307 303 302 300 300 299 299 298 297 296 295 295 295 295 294 294 292 291 294 297 298 298 298 298 298 298 309 312 312 312 314 314 313 313 314 315 314 315 315 315 315
305 304 302 300 299 300 300 298 298 297 296 296 295 294 294 294 294 292 292 290 293 293 295 295 295 296 298 297 302 308 310 312 315 317 314 311 312 313 312 312 313 314 314
305 303 301 301 300 300 299 299 298 296 295 295 295 294 295 294 294 294 292 292 289 289 291 292 295 293 294 297 305 307 299 311 310 311 312 312 311 310 310 310 309 309 309
305 302 300 299 300 299 299 298 297 296 295 294 294 294 294 293 294 293 293 292 290 287 287 291 291 292 293 294 299 295 296 307 306 307 311 308 307 307 306 306 306 307 307
301 300 299 300 299 298 298 296 295 295 295 294 294 295 293 292 293 293 292 293 292 289 286 289 290 291 292 294 298 294 295 304 304 305 306 306 305 304 304 304 304 305 306
302 301 301 299 298 298 297 296 295 295 294 294 294 295 293 292 291 291 293 293 292 291 287 287 290 291 290 291 293 293 296 295 294 303 305 305 304 303 303 303 303 303 304
301 301 301 300 300 298 296 296 296 296 295 295 295 295 295 297 292 292 291 292 292 292 290 287 288 289 290 291 292 291 294 297 294 301 303 303 303 302 302 302 303 302 302
299 300 299 297 297 298 298 297 298 298 297 296 296 295 295 296 293 292 293 293 292 295 292 291 291 290 290 290 290 291 292 292 296 301 301 301 301 301 301 302 303 302 302
298 298 298 298 298 298 298 298 298 297 298 298 298 297 297 296 295 293 293 292 292 291 290 290 289 289 289 291 290 288 290 290 289 294 297 299 300 300 301 301 301 301 301
299 300 299 298 298 298 299 298 297 295 295 295 298 299 300 302 307 303 296 293 291 290 289 288 288 288 289 290 290 289 286 287 288 290 289 288 289 290 292 297 299 300 300
300 300 299 299 299 300 302 303 298 294 294 293 292 294 295 301 302 306 308 309 301 294 291 289 287 287 288 289 289 287 286 284 285 288 286 289 289 290 292 293 297 299 300
297 296 296 297 297 296 301 301 303 295 293 292 292 293 295 300 302 300 302 304 304 307 304 293 290 290 291 293 289 288 287 287 288 290 287 288 290 290 293 294 298 299 299
295 294 295 295 295 297 301 300 302 297 294 293 293 294 294 295 297 298 298 297 297 297 297 301 295 296 293 292 289 290 289 289 289 289 288 286 291 291 293 293 297 298 298
295 295 296 295 295 295 299 299 299 297 297 296 296 295 295 296 299 300 298 295 291 290 296 299 299 299 298 298 298 291 286 284 286 287 287 287 290 289 290 290 292 297 298
297 297 297 297 299 297 299 299 299 298 296 296 296 297 301 299 299 298 294 291 288 288 289 290 289 290 292 290 295 291 288 284 285 285 287 285 288 287 285 289 290 292 292
Wind_Speed
2 2 3 4 4 3 4 4 5 5 6 6 6 6 6 5 6 4 4 12 11 11 9 4 5 8 10 11 11 11 11 10 10 9 9 9 9 9 9 7 7 7 9
4 5 5 4 4 4 4 4 4 5 4 4 6 6 6 6 6 7 5 6 12 9 9 10 8 11 3 3 3 7 8 6 3 1 6 7 8 7 8 9 8 7 6
6 6 5 4 4 3 5 4 4 3 4 3 6 5 6 6 6 7 5 5 4 8 7 19 21 19 20 21 20 19 18 16 15 14 13 13 13 9 3 4 7 8 7
7 6 5 4 3 4 3 4 3 4 4 4 2 3 4 5 7 6 5 4 4 5 12 20 22 21 20 21 21 21 19 18 17 17 17 16 15 14 14 12 11 12 8
6 6 5 4 4 4 4 3 4 3 3 3 3 3 4 5 5 5 6 6 6 6 6 17 21 20 20 19 19 19 19 18 18 17 17 17 16 15 14 14 13 13 13
7 6 5 4 4 4 4 3 4 4 3 3 5 5 5 4 5 4 5 5 5 7 8 7 5 11 18 19 17 17 18 17 17 16 17 15 15 15 14 14 14 13 13
6 6 4 5 4 4 4 3 2 4 4 1 4 6 5 6 6 4 4 4 5 5 7 6 4 4 7 18 18 16 15 16 16 15 16 15 14 13 12 12 13 11 12
6 6 5 4 5 4 4 3 3 3 3 1 4 3 4 2 4 4 3 3 5 4 5 6 6 6 5 4 10 15 13 14 14 14 14 15 12 12 12 13 13 13 13
7 6 5 5 5 4 4 2 2 4 4 2 3 4 4 4 4 3 5 4 5 4 4 5 6 5 6 5 7 9 13 13 12 12 13 14 11 11 11 12 12 13 13
7 7 6 5 4 2 5 2 2 2 3 5 2 3 3 4 5 3 3 3 5 5 5 3 5 5 6 5 10 12 12 11 13 12 13 13 10 10 10 10 11 12 12
7 6 5 4 4 2 4 5 5 5 1 3 3 2 4 4 3 5 3 1 4 4 4 4 5 5 6 5 3 7 11 9 10 11 13 13 11 9 10 10 12 13 13
3 5 6 6 4 5 5 5 6 6 5 5 3 3 3 3 3 4 5 3 5 4 4 4 5 4 4 5 8 14 14 14 12 9 14 14 13 10 11 11 14 14 15
3 5 5 5 3 5 6 6 6 6 4 6 5 4 3 4 3 3 4 3 4 1 2 3 4 4 4 4 5 13 15 14 13 10 11 13 15 13 13 14 15 16 18
6 5 6 6 6 6 6 5 4 4 5 6 8 7 5 5 4 3 5 6 4 3 2 1 1 4 4 4 8 16 7 13 13 13 11 11 13 14 15 16 17 19 20
5 7 7 6 6 7 7 7 4 5 6 5 6 7 6 4 5 5 5 3 4 4 1 2 3 3 4 4 7 6 6 10 14 13 8 10 12 15 18 19 19 19 19
6 7 6 5 6 6 6 7 5 4 7 4 4 9 6 4 5 5 4 4 4 4 3 2 1 2 2 3 5 5 5 9 12 11 7 9 13 15 16 17 17 18 20
7 6 6 5 7 7 5 7 6 6 8 7 5 7 7 5 5 4 4 4 4 4 4 2 2 2 2 3 4 4 5 5 4 10 10 13 15 16 17 16 17 18 19
6 6 5 5 6 6 6 6 6 6 7 6 6 7 6 4 5 4 3 4 4 3 4 3 2 2 3 2 4 5 4 4 4 8 14 17 17 16 15 15 17 19 20
7 5 6 5 6 6 5 5 6 5 6 5 4 5 4 4 2 2 2 3 3 3 2 3 3 2 4 3 3 2 3 4 3 11 16 17 17 17 16 17 18 18 19
6 6 5 5 6 6 6 6 7 6 5 4 3 3 3 2 3 2 1 2 2 2 1 2 2 3 3 5 3 3 4 3 3 5 11 14 16 17 18 20 21 22 21
4 5 4 4 5 5 3 6 6 6 5 2 0 1 1 4 6 5 4 4 3 2 2 3 3 3 3 2 3 1 3 4 4 5 5 4 5 5 7 15 19 22 22
4 5 3 2 2 2 5 7 7 3 1 1 3 4 4 6 5 6 5 8 6 5 4 3 3 3 4 4 2 3 3 3 5 3 2 7 5 9 8 8 18 22 24
4 3 2 2 2 3 2 3 7 3 2 3 5 5 5 3 3 4 7 8 7 8 13 5 5 5 4 5 2 4 4 4 7 6 4 11 4 9 9 10 19 23 25
4 3 4 5 4 5 6 6 6 3 4 6 7 6 5 7 5 4 5 6 5 6 6 4 5 6 6 6 5 6 7 8 6 6 4 9 8 12 11 10 20 24 25
3 4 3 4 5 6 8 8 5 4 5 8 7 6 7 7 9 10 4 4 2 4 4 7 8 10 11 13 12 4 5 3 8 5 3 6 11 13 13 14 12 21 23
4 2 5 6 8 7 8 10 7 4 5 5 6 6 8 7 7 5 4 4 3 6 5 6 6 6 7 9 14 6 4 5 5 8 4 5 11 9 13 9 10 12 11
Wind_Direction
176 107 114 111 91 84 85 76 70 57 45 39 41 52 74 70 79 77 76 78 74 73 77 77 211 229 231 215 208 217 214 210 208 213 215 216 225 224 226 233 240 242 239
120 98 89 85 91 86 83 81 77 75 67 61 39 58 81 86 77 78 71 72 67 65 76 60 49 48 55 71 169 94 92 96 82 241 236 242 230 233 239 237 235 240 246
114 109 101 97 105 97 98 86 77 83 75 65 59 74 94 93 87 86 75 71 62 67 93 85 81 73 74 76 80 83 80 78 77 78 74 62 58 50 8 277 270 254 235
112 110 110 105 105 95 99 86 78 70 67 52 77 87 101 99 104 95 81 58 39 44 65 75 77 77 73 75 76 75 73 71 67 65 64 61 58 52 49 49 43 34 12
108 107 108 108 91 80 62 74 67 90 70 40 70 67 96 101 104 102 90 82 70 57 65 77 76 72 68 68 73 75 71 64 62 59 57 55 52 49 43 43 42 36 29
113 112 109 110 109 98 75 63 94 55 86 66 67 68 51 59 71 86 107 105 91 85 84 72 52 80 79 70 68 72 72 69 64 59 55 50 43 40 34 33 33 30 30
108 109 108 102 81 84 89 92 103 96 61 75 97 76 51 53 64 51 61 92 88 92 93 89 77 60 57 64 61 62 67 68 66 57 50 44 42 47 42 37 31 30 26
104 101 109 104 107 104 74 80 131 126 106 48 133 113 140 89 54 52 54 85 105 107 96 91 87 75 66 56 67 55 57 58 57 53 45 39 40 39 38 34 30 29 24
92 97 99 101 96 92 107 100 166 158 143 59 78 144 131 173 140 3 33 45 69 67 68 88 81 74 65 61 58 43 53 49 45 43 33 23 32 34 32 31 24 21 17
85 83 83 67 77 119 98 98 130 152 132 145 112 49 61 132 144 131 22 26 61 65 78 72 77 67 42 31 41 46 38 49 43 36 22 23 28 24 24 23 18 9 4
91 99 93 111 112 102 84 84 73 73 74 125 138 129 72 67 71 127 130 91 62 28 52 66 65 53 27 23 4 14 31 35 30 26 22 16 11 12 13 10 4 359 355
117 114 110 97 95 85 81 77 74 75 80 83 85 86 122 139 151 125 114 107 116 28 42 50 64 53 28 17 16 30 26 20 7 354 9 15 10 7 4 360 353 351 346
123 111 101 99 87 91 79 75 71 69 53 81 77 74 66 73 109 97 90 100 116 132 93 37 41 33 34 17 3 34 18 18 14 20 31 28 21 20 7 353 346 342 337
136 131 110 106 100 92 82 78 68 77 72 72 78 68 74 54 60 96 129 138 84 55 58 302 328 16 12 6 13 23 359 8 34 10 1 21 32 22 5 353 339 330 325
121 116 120 117 114 105 104 101 85 84 79 71 75 77 75 43 57 58 65 96 123 138 146 335 29 360 8 13 4 16 357 18 5 358 21 34 13 356 341 334 329 330 326
103 105 102 106 106 101 106 109 105 92 88 75 83 87 78 69 64 60 74 69 70 116 113 196 275 275 323 348 348 5 339 348 343 339 354 3 343 332 327 325 324 323 319
102 108 110 107 109 102 103 97 99 99 93 92 80 95 90 93 87 81 74 75 78 86 108 302 238 264 287 316 322 325 320 314 314 319 321 326 323 316 318 320 319 316 311
94 116 110 113 109 118 123 118 104 98 98 93 95 89 108 98 85 96 92 104 116 103 126 176 263 269 234 276 278 298 288 293 300 300 309 311 309 306 305 307 307 309 308
111 109 104 105 107 109 116 115 113 112 109 110 109 109 121 99 106 127 124 135 140 126 154 143 245 246 258 242 264 271 268 283 263 293 303 300 293 294 296 304 302 305 303
96 101 118 129 110 111 110 107 102 94 96 94 105 116 122 168 217 212 206 221 224 200 177 218 263 262 246 261 222 250 294 231 270 271 280 274 279 285 296 294 293 298 297
88 100 117 89 95 100 118 107 123 138 130 129 339 274 210 230 253 202 188 237 213 229 221 236 244 246 242 272 279 267 270 288 265 235 252 260 262 262 262 272 276 285 285
122 118 99 117 109 114 131 149 153 154 59 316 284 299 306 287 287 290 270 255 216 202 224 203 225 238 270 266 249 234 254 272 313 242 262 290 263 272 265 263 268 277 278
165 153 119 165 185 247 269 198 204 175 235 228 228 246 262 250 304 301 310 303 298 256 234 194 212 219 239 244 244 276 253 253 274 283 283 291 262 276 269 269 274 273 271
204 194 210 211 212 251 254 260 257 232 243 246 241 244 244 275 281 285 282 286 287 272 253 220 202 250 243 264 232 259 275 284 286 266 228 277 300 289 292 283 280 279 278
202 213 216 219 221 252 247 240 234 248 252 255 247 239 220 236 245 252 250 266 288 282 282 269 268 265 266 267 263 292 273 291 300 292 231 275 303 299 296 292 281 276 278
220 225 244 227 235 249 241 246 231 211 245 256 266 252 239 223 244 250 174 167 253 269 295 308 302 290 267 265 277 236 226 245 269 295 251 264 299 306 298 273 285 285 280